Palma de Mallorca, Spain

9:47 AM CEST on March 28, 2017 (GMT +0200)
Palma De Mallorca

Weather History for LEPA - July, 2012

Change the Weather History Date:

Monday, July 23, 2012

  Actual Average Record
Temperature  
Mean Temperature 73 °F -  
Max Temperature 86 °F 86 °F 95 °F (1996)
Min Temperature 60 °F 66 °F 60 °F (2012)
Cooling Degree Days 8    
Growing Degree Days 23 (Base 50)    
Moisture  
Dew Point 55 °F    
Average Humidity 55    
Maximum Humidity 83    
Minimum Humidity 20    
Precipitation  
Precipitation 0.00 in 0.02 in - ()
Sea Level Pressure  
Sea Level Pressure 30.03 in    
Wind  
Wind Speed 3 mph ()    
Max Wind Speed 13 mph    
Max Gust Speed -    
Visibility 7.0 miles    
Events      
Averages and records for this station are not official NWS values.
T = Trace of Precipitation, MM = Missing Value Source: Averaged Metar Reports

Daily Weather History Graph

Daily Weather History Graph

Search for Another Location

Airport or City:

Trip Planner

Search our weather history database for the weather conditions in past years. The results will help you decide how hot, cold, wet, or windy it might be!

Date:

Astronomy

Jul. 23, 2012 Rise Set
Actual Time 6:40 AM CEST 9:09 PM CEST
Civil Twilight 6:09 AM CEST 9:40 PM CEST
Nautical Twilight 5:31 AM CEST 10:18 PM CEST
Astronomical Twilight 4:48 AM CEST 11:01 PM CEST
Moon 11:13 AM CEST (7/23) 11:17 PM CEST (7/23)
Length of Visible Light 15h 30m
Length of Day
14h 29m
Waxing Crescent, 19% of the Moon is Illuminated
Jul 23
Waxing Crescent
Jul 26
First Quarter
Aug 2
Full
Aug 9
Last Quarter
Aug 17
New

Hourly Weather History & Observations

Time (CEST) Temp. Heat Index Dew Point Humidity Pressure Visibility Wind Dir Wind Speed Gust Speed Precip Events Conditions
12:00 AM 71.6 °F - 57.2 °F 60% 30.09 in 6.2 mi Calm Calm - N/A   Scattered Clouds
12:30 AM 69.8 °F - 57.2 °F 64% 30.06 in 6.2 mi Calm Calm - N/A   Scattered Clouds
1:00 AM 69.8 °F - 57.2 °F 64% 30.06 in 6.2 mi Calm Calm - N/A   Partly Cloudy
1:30 AM 68.0 °F - 57.2 °F 68% 30.06 in 6.2 mi Calm Calm - N/A   Partly Cloudy
2:00 AM 66 °F - 54 °F 55% 30.08 in 11 mi North 1.2 mph - -   Scattered Clouds
2:00 AM 68.0 °F - 57.2 °F 68% 30.06 in 6.2 mi Calm Calm - N/A   Partly Cloudy
2:30 AM 68.0 °F - 57.2 °F 68% 30.06 in 6.2 mi Calm Calm - N/A   Partly Cloudy
3:00 AM 62.6 °F - 55.4 °F 77% 30.06 in 6.2 mi Calm Calm - N/A   Partly Cloudy
3:30 AM 62.6 °F - 55.4 °F 77% 30.04 in 6.2 mi Calm Calm - N/A   Partly Cloudy
4:00 AM 62.6 °F - 55.4 °F 77% 30.04 in 6.2 mi ENE 1.2 mph - N/A   Partly Cloudy
4:30 AM 62.6 °F - 55.4 °F 77% 30.04 in 6.2 mi Calm Calm - N/A   Partly Cloudy
5:00 AM 62.6 °F - 57.2 °F 82% 30.04 in 6.2 mi Calm Calm - N/A   Partly Cloudy
5:30 AM 60.8 °F - 55.4 °F 82% 30.04 in 6.2 mi Calm Calm - N/A   Partly Cloudy
6:00 AM 62.6 °F - 55.4 °F 77% 30.04 in 6.2 mi ENE 1.2 mph - N/A   Partly Cloudy
6:30 AM 62.6 °F - 55.4 °F 77% 30.04 in 6.2 mi Calm Calm - N/A   Partly Cloudy
7:00 AM 62.6 °F - 57.2 °F 82% 30.04 in 6.2 mi Calm Calm - N/A   Partly Cloudy
7:30 AM 64.4 °F - 57.2 °F 77% 30.04 in 6.2 mi Variable 1.2 mph - N/A   Scattered Clouds
8:00 AM 65 °F - 54 °F 60% 30.04 in 11 mi ESE 1.2 mph - -   Mostly Cloudy
8:00 AM 68.0 °F - 57.2 °F 68% 30.04 in 6.2 mi Calm Calm - N/A   Scattered Clouds
8:30 AM 69.8 °F - 59.0 °F 68% 30.01 in 6.2 mi Variable 1.2 mph - N/A   Scattered Clouds
9:00 AM 69.8 °F - 60.8 °F 73% 30.04 in 6.2 mi ENE 6.9 mph - N/A   Scattered Clouds
9:30 AM 71.6 °F - 64.4 °F 78% 30.04 in 6.2 mi Calm Calm - N/A   Scattered Clouds
10:00 AM 71.6 °F - 66.2 °F 83% 30.04 in 6.2 mi Variable 1.2 mph - N/A   Scattered Clouds
10:30 AM 73.4 °F - 66.2 °F 78% 30.01 in 6.2 mi North 3.5 mph - N/A   Scattered Clouds
11:00 AM 75.2 °F - 51.8 °F 44% 30.01 in 6.2 mi NE 12.7 mph - N/A   Scattered Clouds
11:30 AM 77.0 °F - 55.4 °F 47% 30.04 in 6.2 mi NE 12.7 mph - N/A   Scattered Clouds
12:00 PM 78.8 °F - 53.6 °F 42% 30.04 in 6.2 mi ENE 8.1 mph - N/A   Partly Cloudy
12:30 PM 80.6 °F 80.3 °F 53.6 °F 39% 30.04 in 6.2 mi ENE 11.5 mph - N/A   Partly Cloudy
1:00 PM 80.6 °F - 51.8 °F 37% 30.04 in 6.2 mi ENE 10.4 mph - N/A   Partly Cloudy
1:30 PM 82.4 °F - 51.8 °F 35% 30.01 in 6.2 mi East 10.4 mph - N/A   Partly Cloudy
2:00 PM 83 °F - 49 °F 20% 30.03 in 19 mi East 11.5 mph - -   Partly Cloudy
2:00 PM 82.4 °F 81.4 °F 53.6 °F 37% 30.01 in 6.2 mi NE 11.5 mph - N/A   Partly Cloudy
2:30 PM 84.2 °F - 46.4 °F 27% 30.01 in 6.2 mi ENE 11.5 mph - N/A   Partly Cloudy
3:00 PM 82.4 °F - 46.4 °F 28% 30.01 in 6.2 mi ENE 11.5 mph - N/A   Partly Cloudy
3:30 PM 80.6 °F 80.8 °F 57.2 °F 45% 30.01 in 6.2 mi SSW 5.8 mph - N/A   Partly Cloudy
4:00 PM 84.2 °F 82.8 °F 53.6 °F 35% 30.01 in 6.2 mi WSW 9.2 mph - N/A   Partly Cloudy
4:30 PM 80.6 °F 80.5 °F 55.4 °F 42% 30.01 in 6.2 mi SW 9.2 mph - N/A   Partly Cloudy
5:00 PM 82.4 °F 81.7 °F 55.4 °F 39% 30.01 in 6.2 mi SW 9.2 mph - N/A   Partly Cloudy
5:30 PM 80.6 °F 80.5 °F 55.4 °F 42% 30.01 in 6.2 mi West 1.2 mph - N/A   Partly Cloudy
6:00 PM 82.4 °F 81.7 °F 55.4 °F 39% 29.98 in 6.2 mi SW 3.5 mph - N/A   Partly Cloudy
6:30 PM 80.6 °F 81.1 °F 59.0 °F 48% 29.98 in 6.2 mi WSW 6.9 mph - N/A   Partly Cloudy
7:00 PM 80.6 °F 80.8 °F 57.2 °F 45% 29.98 in 6.2 mi ESE 2.3 mph - N/A   Partly Cloudy
7:30 PM 80.6 °F 80.8 °F 57.2 °F 45% 30.01 in 6.2 mi East 8.1 mph - N/A   Partly Cloudy
8:00 PM 81 °F - 47 °F 20% 30.00 in 19 mi East 5.8 mph - -   Scattered Clouds
8:00 PM 80.6 °F - 50.0 °F 34% 29.98 in 6.2 mi Variable 2.3 mph - N/A   Partly Cloudy
8:30 PM 78.8 °F - 55.4 °F 44% 30.01 in - SSE 1.2 mph - N/A   Clear
9:00 PM 78.8 °F - 57.2 °F 47% 30.01 in - Variable 1.2 mph - N/A   Clear
9:30 PM 77.0 °F - 48.2 °F 36% 30.01 in - Calm Calm - N/A   Clear
10:00 PM 77.0 °F - 48.2 °F 36% 30.01 in - ENE 2.3 mph - N/A   Clear
10:30 PM 75.2 °F - 51.8 °F 44% 30.04 in - ENE 1.2 mph - N/A   Clear
11:00 PM 71.6 °F - 51.8 °F 50% 30.04 in - ENE 1.2 mph - N/A   Clear
11:30 PM 68.0 °F - 53.6 °F 60% 30.04 in - ENE 3.5 mph - N/A   Clear